Dewpoint
50 50 50 50 50 50 50 50 51 51 52 52 53 53 54 54 53 49 41 35 46 55 53 26 24 25 24 25 34 44 33 29 31 30 28 34 33 36 37 36 35 35 34 34 36
53 52 52 51 50 50 50 50 50 51 52 52 53 53 54 53 50 47 48 50 52 54 16 17 25 25 19 23 29 33 28 28 35 33 32 34 35 33 33 34 33 34 34 30 29
53 52 52 52 52 52 50 50 50 50 51 52 52 53 54 53 45 34 55 56 56 48 34 30 32 24 17 22 25 30 27 34 36 35 30 31 29 31 32 32 33 30 26 25 29
53 53 52 52 52 51 51 50 50 51 51 52 52 52 53 52 27 41 58 57 56 42 38 35 28 19 21 17 20 21 25 22 27 21 19 22 19 22 26 29 28 23 25 26 28
52 52 52 52 52 51 50 51 50 50 50 51 52 53 50 34 36 42 58 54 46 41 33 29 23 19 17 19 20 18 18 19 19 17 17 18 17 19 22 25 23 23 24 24 25
51 51 52 52 52 51 50 50 52 50 51 51 52 53 45 17 34 42 48 48 44 39 31 32 23 23 22 21 20 20 19 18 17 16 16 15 16 17 19 24 21 22 24 23 28
53 51 51 51 51 51 51 52 52 51 52 52 52 51 41 13 36 42 42 36 36 35 26 26 25 20 23 19 21 21 16 14 12 13 14 15 14 15 21 22 22 30 31 23 24
53 52 51 50 50 51 52 52 52 52 52 52 53 51 31 28 37 41 40 34 34 33 29 24 25 23 23 23 20 17 14 5 10 15 15 15 10 16 22 23 21 23 22 23 23
50 49 51 51 51 51 52 52 53 53 53 53 50 44 34 44 33 25 29 20 16 22 25 22 24 23 22 19 18 18 12 15 15 18 18 17 17 19 23 24 25 27 25 22 23
50 51 51 50 51 52 52 51 54 54 52 51 47 40 36 33 37 26 22 18 16 23 22 24 23 21 20 17 11 14 15 16 15 16 19 18 18 20 22 23 24 26 27 26 25
49 49 50 50 51 52 50 42 35 34 45 32 34 36 35 38 35 20 18 21 23 21 17 21 20 19 16 18 17 17 18 16 17 18 21 19 19 19 21 23 22 23 28 30 29
48 49 49 50 51 52 47 38 38 38 33 33 35 36 37 36 30 27 22 19 20 17 19 18 14 17 17 17 17 19 17 16 19 21 20 18 19 23 23 25 25 24 24 30 30
48 48 49 50 51 45 41 39 41 36 32 30 31 31 28 32 29 27 22 20 18 17 17 16 14 19 17 15 18 19 18 18 17 21 21 22 14 19 21 20 24 25 25 26 27
48 48 49 50 44 41 38 42 41 37 26 22 21 25 29 28 23 28 21 20 18 17 17 17 16 15 15 15 19 16 21 19 21 18 11 20 8 16 18 21 21 23 24 24 25
48 49 50 50 41 38 41 43 39 39 16 22 17 20 19 18 17 17 22 20 18 17 17 13 14 15 15 14 21 16 23 22 20 18 20 15 16 14 21 17 19 22 24 26 29
49 50 50 47 45 42 42 41 41 28 16 19 20 20 21 22 19 20 19 21 20 17 18 16 17 16 16 19 25 24 21 20 22 19 12 14 14 10 14 19 21 20 22 27 34
49 50 48 43 36 40 42 40 31 23 23 20 19 20 21 23 21 23 22 21 17 16 17 17 17 18 26 22 21 20 21 14 10 8 5 19 15 14 20 20 19 19 23 31 36
48 48 48 43 45 45 40 34 28 23 19 22 19 21 21 23 23 23 21 21 27 21 21 17 14 19 24 21 18 21 21 17 13 7 6 14 12 12 19 21 23 25 34 37 35
47 46 46 46 45 41 36 35 26 23 25 24 20 22 23 23 23 23 22 21 24 27 23 25 21 25 25 25 23 21 20 22 19 19 17 14 14 17 18 21 26 28 34 32 35
44 44 43 43 43 41 34 30 29 29 27 25 20 23 21 21 21 23 24 25 26 28 29 25 21 25 25 26 25 25 25 23 28 18 14 9 12 12 17 19 25 26 29 32 34
43 40 42 41 43 38 34 30 32 32 29 28 21 22 22 21 23 23 23 24 28 29 29 28 27 23 27 24 20 23 24 28 27 24 15 10 11 23 23 23 27 29 33 30 33
43 34 42 40 34 35 31 31 33 28 31 30 27 25 24 26 26 25 23 24 30 30 28 31 31 24 23 24 27 26 25 26 23 17 23 21 19 24 26 26 33 30 28 31 39
39 39 43 38 32 27 26 26 29 26 30 30 28 27 28 27 26 27 27 29 30 30 31 35 29 22 19 24 29 27 26 26 28 29 25 22 19 26 29 28 28 31 33 37 38
33 28 28 33 32 27 26 23 29 31 30 29 28 29 29 27 28 27 27 30 29 29 34 35 32 26 21 18 28 25 25 26 27 29 24 23 23 26 29 30 32 34 36 39 39
34 32 34 20 24 29 31 29 27 26 30 30 28 28 28 27 26 26 28 28 28 30 31 33 30 29 28 27 26 25 23 23 25 28 26 26 26 28 30 32 34 36 38 37 37
30 28 33 31 32 31 30 26 28 28 29 27 28 28 29 28 28 27 27 27 28 28 32 36 28 28 27 28 28 28 27 27 26 27 25 27 28 32 32 32 33 35 37 37 37
37 36 37 27 28 28 23 25 29 31 27 30 30 30 28 27 29 31 32 32 31 31 31 33 31 29 22 22 24 22 23 24 24 26 28 26 26 29 31 32 33 35 37 37 38
Lifted_Index
11 11 11 11 12 12 12 13 12 12 12 12 11 11 11 11 10 10 11 11 9 8 9 10 10 9 7 6 5 3 2 2 2 2 2 3 4 4 3 3 3 3 4 4 4
10 11 11 11 12 12 12 13 13 12 12 12 11 11 11 10 10 9 9 9 8 8 10 10 10 9 7 6 5 4 3 2 2 2 2 3 3 3 3 2 3 3 3 3 4
10 10 10 11 11 12 12 13 13 13 12 12 11 11 10 10 9 8 7 6 7 8 10 10 10 9 7 7 6 5 4 3 2 2 2 2 2 3 3 2 2 3 3 3 3
10 10 10 11 11 11 12 12 13 13 12 12 11 11 10 9 8 6 5 5 6 8 9 9 9 8 7 7 7 6 5 4 3 3 2 2 2 2 3 2 2 3 3 4 4
10 10 10 11 11 11 12 12 12 12 12 12 11 10 10 9 7 6 5 5 6 8 8 8 8 8 7 7 7 6 6 5 5 4 4 3 3 3 3 3 2 3 4 5 5
10 10 10 10 11 11 11 11 12 12 12 11 10 10 9 9 8 7 6 6 7 8 8 8 8 8 8 7 7 7 6 6 5 5 5 4 4 4 4 4 3 3 4 5 6
10 10 10 11 11 11 11 10 11 11 11 10 9 9 9 9 8 7 7 7 8 8 8 8 8 8 8 7 7 6 6 5 5 5 5 5 4 5 5 5 4 3 4 5 5
10 10 10 11 11 10 9 9 9 10 10 9 9 8 9 9 8 8 8 8 8 8 8 8 8 8 7 7 7 6 5 4 5 5 6 5 4 5 6 6 5 4 4 5 5
11 11 11 11 11 9 8 8 8 8 9 8 8 8 8 8 8 8 8 8 8 8 8 8 8 7 7 6 5 5 4 4 4 6 6 5 5 6 7 7 6 6 6 6 6
11 11 11 11 10 9 8 8 8 8 8 8 8 7 7 7 7 8 9 8 8 7 7 7 7 7 7 6 5 4 4 4 5 6 6 6 6 7 7 7 7 6 6 6 6
11 11 11 11 10 8 8 8 8 8 8 8 7 7 7 7 7 8 8 8 8 7 7 6 6 6 6 6 6 5 5 5 6 7 6 6 6 7 7 7 7 7 6 6 6
11 11 12 11 10 8 8 8 8 8 8 8 7 7 7 7 7 7 7 7 7 7 6 6 6 6 6 6 6 6 6 6 6 7 7 6 6 6 7 7 7 7 7 7 7
11 11 12 11 9 8 9 9 9 8 7 7 7 7 7 6 6 6 7 7 6 6 6 6 6 6 6 6 6 6 6 6 6 7 6 6 5 5 6 6 7 8 8 8 8
11 12 12 11 9 8 8 9 8 7 6 7 7 7 7 6 6 6 6 6 6 6 5 5 5 5 5 5 5 5 6 6 6 6 6 5 4 4 5 6 7 8 8 8 8
11 12 11 10 9 8 8 8 7 6 4 6 7 7 7 6 6 6 6 5 5 5 5 4 4 4 4 5 5 5 5 6 6 6 5 4 4 4 5 6 7 8 8 8 8
11 11 10 9 8 8 8 7 6 4 4 5 6 6 6 6 5 5 5 5 5 4 4 4 4 4 4 4 4 4 5 5 5 4 3 3 4 4 5 6 7 8 8 8 7
10 10 9 9 8 8 7 6 4 4 4 5 5 5 5 5 5 5 5 4 4 4 3 3 3 3 3 3 3 4 3 3 2 2 2 3 3 4 5 6 7 8 7 7 6
9 9 9 8 8 8 7 5 4 4 5 5 5 5 5 5 5 5 5 5 4 4 3 3 3 2 2 2 3 3 3 2 1 1 2 3 3 4 5 6 7 7 6 6 6
9 8 8 8 8 8 6 5 5 5 5 5 5 5 5 5 5 5 5 5 4 4 3 3 3 3 3 3 3 3 3 3 2 2 2 2 3 4 5 5 5 5 5 5 6
9 8 8 9 8 8 6 6 6 6 6 5 5 5 5 5 5 5 5 5 4 4 4 3 3 3 3 3 3 3 3 3 3 2 1 1 2 3 4 4 3 3 3 4 4
9 8 8 8 8 8 7 7 7 6 6 6 5 5 5 5 5 5 5 5 4 4 4 4 3 3 3 3 3 3 3 3 3 2 2 1 2 2 3 3 2 2 2 2 2
9 9 8 8 8 8 8 8 8 7 6 6 6 5 5 5 5 5 4 4 4 4 4 4 3 3 3 3 3 3 3 3 3 3 3 2 2 2 2 2 2 2 1 1 1
9 9 9 9 8 8 8 8 8 7 7 6 6 5 5 5 5 5 4 4 4 4 4 4 3 3 3 3 3 3 3 3 3 3 3 2 2 2 2 2 2 2 2 1 1
9 8 9 9 8 8 7 7 7 7 7 7 6 6 6 5 5 5 5 4 4 4 4 4 3 3 3 2 2 2 2 2 2 2 2 2 2 2 1 1 1 1 1 1 1
9 8 8 8 7 8 7 7 7 7 8 8 7 7 6 6 6 6 5 5 5 4 4 4 4 3 3 2 2 2 2 2 2 2 2 2 2 2 1 1 1 1 1 1 1
10 10 8 7 7 7 7 8 8 8 9 9 8 8 8 7 7 6 6 6 5 4 3 3 3 3 3 2 2 2 2 2 2 2 2 2 1 1 1 1 1 0 1 1 2
12 11 9 7 7 7 7 8 9 10 10 9 9 9 8 8 8 7 6 6 5 4 3 3 3 3 3 2 2 2 2 2 2 1 1 1 1 1 1 1 1 0 1 1 1